Time,TemperatureF,DewpointF,PressureIn,WindDirection,WindDirectionDegrees,WindSpeedMPH,WindSpeedGustMPH,Humidity,HourlyPrecipIn,Conditions,Clouds,dailyrainin,SoftwareType,DateUTC
2013-01-08 00:00:00,41.8,38.5,29.93,East,100,0.0,0.0,88,0.00,,,0.01,Wunderground v.1.15,2013-01-08 08:00:00,
2013-01-08 00:05:00,41.8,38.5,29.93,East,100,0.0,0.0,88,0.00,,,0.00,Wunderground v.1.15,2013-01-08 08:05:00,
2013-01-08 00:20:00,41.6,38.3,29.93,East,100,0.0,0.0,88,0.00,,,0.00,Wunderground v.1.15,2013-01-08 08:20:00,
2013-01-08 00:25:00,41.4,38.4,29.93,East,100,0.0,0.0,89,0.00,,,0.00,Wunderground v.1.15,2013-01-08 08:25:00,
2013-01-08 00:30:00,41.3,38.0,29.92,East,100,0.0,0.0,88,0.00,,,0.00,Wunderground v.1.15,2013-01-08 08:30:00,
2013-01-08 00:35:00,41.1,38.1,29.92,East,100,0.0,0.0,89,0.00,,,0.00,Wunderground v.1.15,2013-01-08 08:35:00,
2013-01-08 00:40:00,41.0,37.7,29.92,East,100,0.0,0.0,88,0.00,,,0.00,Wunderground v.1.15,2013-01-08 08:40:00,
2013-01-08 00:45:00,40.8,37.5,29.92,East,100,0.0,0.0,88,0.00,,,0.00,Wunderground v.1.15,2013-01-08 08:45:00,
2013-01-08 00:55:00,40.6,37.6,29.92,East,100,0.0,1.0,89,0.00,,,0.00,Wunderground v.1.15,2013-01-08 08:55:00,
2013-01-08 01:00:00,40.6,37.6,29.93,East,100,0.0,0.0,89,0.00,,,0.00,Wunderground v.1.15,2013-01-08 09:00:00,
2013-01-08 01:05:00,40.6,37.6,29.93,East,100,0.0,0.0,89,0.00,,,0.00,Wunderground v.1.15,2013-01-08 09:05:00,
2013-01-08 01:15:00,40.3,37.3,29.93,East,100,0.0,0.0,89,0.00,,,0.00,Wunderground v.1.15,2013-01-08 09:15:00,
2013-01-08 01:20:00,40.3,37.3,29.93,East,100,0.0,0.0,89,0.00,,,0.00,Wunderground v.1.15,2013-01-08 09:20:00,
2013-01-08 01:36:00,40.0,37.0,29.93,East,100,0.0,0.0,89,0.00,,,0.00,Wunderground v.1.15,2013-01-08 09:36:00,
2013-01-08 01:40:00,40.0,37.0,29.93,East,100,0.0,0.0,89,0.00,,,0.00,Wunderground v.1.15,2013-01-08 09:40:00,
2013-01-08 01:50:00,39.8,36.8,29.93,East,100,0.0,0.0,89,0.00,,,0.00,Wunderground v.1.15,2013-01-08 09:50:00,
2013-01-08 01:55:00,39.8,36.8,29.93,East,100,0.0,0.0,89,0.00,,,0.00,Wunderground v.1.15,2013-01-08 09:55:00,
2013-01-08 02:00:00,39.7,36.7,29.93,East,100,0.0,0.0,89,0.00,,,0.00,Wunderground v.1.15,2013-01-08 10:00:00,
2013-01-08 02:10:00,39.6,36.6,29.93,East,100,0.0,0.0,89,0.00,,,0.00,Wunderground v.1.15,2013-01-08 10:10:00,
2013-01-08 02:30:00,39.3,36.6,29.92,North,10,1.0,1.0,90,0.00,,,0.00,Wunderground v.1.15,2013-01-08 10:30:00,
2013-01-08 02:35:00,39.3,36.6,29.92,North,10,0.0,1.0,90,0.00,,,0.00,Wunderground v.1.15,2013-01-08 10:35:00,
2013-01-08 02:40:00,39.3,36.3,29.92,North,10,0.0,0.0,89,0.00,,,0.00,Wunderground v.1.15,2013-01-08 10:40:00,
2013-01-08 02:45:00,39.1,36.1,29.92,North,10,0.0,0.0,89,0.00,,,0.00,Wunderground v.1.15,2013-01-08 10:45:00,
2013-01-08 02:50:00,39.1,36.4,29.92,North,10,0.0,0.0,90,0.00,,,0.00,Wunderground v.1.15,2013-01-08 10:50:00,
2013-01-08 03:11:00,38.8,36.1,29.92,North,10,0.0,2.0,90,0.00,,,0.00,Wunderground v.1.15,2013-01-08 11:11:00,
2013-01-08 03:15:00,38.8,36.1,29.92,North,10,1.0,2.0,90,0.00,,,0.00,Wunderground v.1.15,2013-01-08 11:15:00,
2013-01-08 03:20:00,38.7,36.0,29.92,North,10,0.0,2.0,90,0.00,,,0.00,Wunderground v.1.15,2013-01-08 11:20:00,
2013-01-08 03:25:00,38.7,36.0,29.92,North,10,0.0,0.0,90,0.00,,,0.00,Wunderground v.1.15,2013-01-08 11:25:00,
2013-01-08 03:30:00,38.6,35.9,29.92,North,10,0.0,0.0,90,0.00,,,0.00,Wunderground v.1.15,2013-01-08 11:30:00,
2013-01-08 03:40:00,38.4,35.7,29.92,North,10,0.0,0.0,90,0.00,,,0.00,Wunderground v.1.15,2013-01-08 11:40:00,
2013-01-08 04:00:00,38.4,35.7,29.93,North,10,1.0,1.0,90,0.00,,,0.00,Wunderground v.1.15,2013-01-08 12:00:00,
2013-01-08 04:05:00,38.6,35.9,29.93,North,10,1.0,1.0,90,0.00,,,0.00,Wunderground v.1.15,2013-01-08 12:05:00,
2013-01-08 04:15:00,38.6,35.9,29.93,North,8,1.0,1.0,90,0.00,,,0.00,Wunderground v.1.15,2013-01-08 12:15:00,
2013-01-08 04:25:00,38.6,35.9,29.93,North,8,0.0,0.0,90,0.00,,,0.00,Wunderground v.1.15,2013-01-08 12:25:00,
2013-01-08 04:30:00,38.4,35.7,29.93,North,8,0.0,0.0,90,0.00,,,0.00,Wunderground v.1.15,2013-01-08 12:30:00,
2013-01-08 04:35:00,38.4,35.7,29.93,North,8,0.0,0.0,90,0.00,,,0.00,Wunderground v.1.15,2013-01-08 12:35:00,
2013-01-08 04:40:00,38.3,35.6,29.93,North,8,0.0,0.0,90,0.00,,,0.00,Wunderground v.1.15,2013-01-08 12:40:00,
2013-01-08 04:50:00,38.3,35.6,29.92,North,8,1.0,1.0,90,0.00,,,0.00,Wunderground v.1.15,2013-01-08 12:50:00,
2013-01-08 05:05:00,38.1,35.4,29.92,North,8,0.0,0.0,90,0.00,,,0.00,Wunderground v.1.15,2013-01-08 13:05:00,
2013-01-08 05:15:00,38.3,35.6,29.92,North,8,0.0,0.0,90,0.00,,,0.00,Wunderground v.1.15,2013-01-08 13:15:00,
2013-01-08 05:20:00,38.1,35.4,29.92,North,8,1.0,1.0,90,0.00,,,0.00,Wunderground v.1.15,2013-01-08 13:20:00,
2013-01-08 05:35:00,38.0,35.3,29.93,North,8,0.0,0.0,90,0.00,,,0.00,Wunderground v.1.15,2013-01-08 13:35:00,
2013-01-08 05:45:00,37.8,35.1,29.93,North,8,0.0,0.0,90,0.00,,,0.00,Wunderground v.1.15,2013-01-08 13:45:00,
2013-01-08 05:50:00,37.8,35.4,29.93,North,8,0.0,1.0,91,0.00,,,0.00,Wunderground v.1.15,2013-01-08 13:50:00,
2013-01-08 05:55:00,38.0,35.6,29.93,North,8,0.0,1.0,91,0.00,,,0.00,Wunderground v.1.15,2013-01-08 13:55:00,
2013-01-08 06:06:00,38.1,35.7,29.93,North,8,0.0,1.0,91,0.00,,,0.00,Wunderground v.1.15,2013-01-08 14:06:00,
2013-01-08 06:10:00,38.1,35.7,29.93,North,8,1.0,1.0,91,0.00,,,0.00,Wunderground v.1.15,2013-01-08 14:10:00,
2013-01-08 06:15:00,38.1,35.7,29.93,North,8,1.0,1.0,91,0.00,,,0.00,Wunderground v.1.15,2013-01-08 14:15:00,
2013-01-08 06:25:00,38.0,35.6,29.93,North,8,0.0,0.0,91,0.00,,,0.00,Wunderground v.1.15,2013-01-08 14:25:00,
2013-01-08 06:50:00,37.7,35.3,29.95,North,8,0.0,0.0,91,0.00,,,0.00,Wunderground v.1.15,2013-01-08 14:50:00,
2013-01-08 06:55:00,37.7,35.3,29.95,North,8,0.0,0.0,91,0.00,,,0.00,Wunderground v.1.15,2013-01-08 14:55:00,
2013-01-08 07:00:00,37.7,35.3,29.96,North,8,0.0,0.0,91,0.00,,,0.00,Wunderground v.1.15,2013-01-08 15:00:00,
2013-01-08 07:20:00,38.0,35.6,29.97,North,8,0.0,0.0,91,0.00,,,0.00,Wunderground v.1.15,2013-01-08 15:20:00,
2013-01-08 07:30:00,38.4,36.0,29.98,North,357,1.0,1.0,91,0.00,,,0.00,Wunderground v.1.15,2013-01-08 15:30:00,
2013-01-08 07:35:00,39.0,36.6,29.98,North,357,1.0,2.0,91,0.00,,,0.00,Wunderground v.1.15,2013-01-08 15:35:00,
2013-01-08 07:45:00,39.7,37.3,29.98,North,357,1.0,2.0,91,0.00,,,0.00,Wunderground v.1.15,2013-01-08 15:45:00,
2013-01-08 08:00:00,41.8,39.1,29.98,North,354,1.0,2.0,90,0.00,,,0.00,Wunderground v.1.15,2013-01-08 16:00:00,
2013-01-08 08:05:00,42.6,39.6,29.98,North,354,0.0,2.0,89,0.00,,,0.00,Wunderground v.1.15,2013-01-08 16:05:00,
2013-01-08 08:10:00,43.6,40.6,29.98,North,354,0.0,0.0,89,0.00,,,0.00,Wunderground v.1.15,2013-01-08 16:10:00,
2013-01-08 08:15:00,44.9,41.3,29.99,North,354,0.0,0.0,87,0.00,,,0.00,Wunderground v.1.15,2013-01-08 16:15:00,
2013-01-08 08:31:00,47.1,41.2,29.99,ENE,59,0.0,2.0,80,0.00,,,0.00,Wunderground v.1.15,2013-01-08 16:31:00,
2013-01-08 08:35:00,47.6,40.7,29.99,ENE,59,0.0,2.0,77,0.00,,,0.00,Wunderground v.1.15,2013-01-08 16:35:00,
2013-01-08 08:40:00,48.1,40.5,29.99,ENE,59,0.0,2.0,75,0.00,,,0.00,Wunderground v.1.15,2013-01-08 16:40:00,
2013-01-08 08:45:00,48.4,40.5,30.00,ENE,59,1.0,2.0,74,0.00,,,0.00,Wunderground v.1.15,2013-01-08 16:45:00,
2013-01-08 08:55:00,49.3,41.0,30.00,ENE,64,2.0,2.0,73,0.00,,,0.00,Wunderground v.1.15,2013-01-08 16:55:00,
2013-01-08 09:00:00,49.9,40.9,30.00,ENE,69,2.0,3.0,71,0.00,,,0.00,Wunderground v.1.15,2013-01-08 17:00:00,
2013-01-08 09:05:00,50.7,41.3,30.00,NE,54,2.0,3.0,70,0.00,,,0.00,Wunderground v.1.15,2013-01-08 17:05:00,
2013-01-08 09:20:00,53.5,42.0,30.00,East,90,2.0,2.0,65,0.00,,,0.00,Wunderground v.1.15,2013-01-08 17:20:00,
2013-01-08 09:25:00,53.9,42.0,30.00,ENE,75,2.0,2.0,64,0.00,,,0.00,Wunderground v.1.15,2013-01-08 17:25:00,
2013-01-08 09:30:00,54.2,42.3,30.01,ENE,62,2.0,2.0,64,0.00,,,0.00,Wunderground v.1.15,2013-01-08 17:30:00,
2013-01-08 09:35:00,54.8,42.4,30.01,East,90,1.0,2.0,63,0.00,,,0.00,Wunderground v.1.15,2013-01-08 17:35:00,
2013-01-08 09:45:00,55.8,43.4,30.01,ESE,107,2.0,2.0,63,0.00,,,0.00,Wunderground v.1.15,2013-01-08 17:45:00,
2013-01-08 10:06:00,58.1,45.6,30.00,East,97,0.0,1.0,63,0.00,,,0.00,Wunderground v.1.15,2013-01-08 18:06:00,
2013-01-08 10:11:00,58.4,45.4,30.00,East,97,1.0,1.0,62,0.00,,,0.00,Wunderground v.1.15,2013-01-08 18:11:00,
2013-01-08 10:15:00,58.6,46.0,30.00,East,97,1.0,1.0,63,0.00,,,0.00,Wunderground v.1.15,2013-01-08 18:15:00,
2013-01-08 10:20:00,58.9,46.3,30.00,East,97,1.0,3.0,63,0.00,,,0.00,Wunderground v.1.15,2013-01-08 18:20:00,
2013-01-08 10:30:00,59.5,46.9,29.99,East,97,1.0,1.0,63,0.00,,,0.00,Wunderground v.1.15,2013-01-08 18:30:00,
2013-01-08 10:35:00,60.3,47.2,29.99,East,97,0.0,2.0,62,0.00,,,0.00,Wunderground v.1.15,2013-01-08 18:35:00,
2013-01-08 10:40:00,60.6,46.2,29.99,WSW,241,1.0,2.0,59,0.00,,,0.00,Wunderground v.1.15,2013-01-08 18:40:00,
2013-01-08 10:45:00,61.2,46.3,29.99,WSW,241,1.0,2.0,58,0.00,,,0.00,Wunderground v.1.15,2013-01-08 18:45:00,
2013-01-08 10:50:00,61.7,46.3,29.99,South,184,1.0,1.0,57,0.00,,,0.00,Wunderground v.1.15,2013-01-08 18:50:00,
2013-01-08 11:16:00,63.2,45.3,29.97,West,264,2.0,2.0,52,0.00,,,0.00,Wunderground v.1.15,2013-01-08 19:16:00,
2013-01-08 11:25:00,64.0,44.4,29.97,SW,217,1.0,5.0,49,0.00,,,0.00,Wunderground v.1.15,2013-01-08 19:25:00,
2013-01-08 11:30:00,64.0,48.5,29.96,SW,222,2.0,5.0,57,0.00,,,0.00,Wunderground v.1.15,2013-01-08 19:30:00,
2013-01-08 11:35:00,63.5,48.9,29.96,SSW,193,4.0,6.0,59,0.00,,,0.00,Wunderground v.1.15,2013-01-08 19:35:00,
2013-01-08 11:40:00,63.3,49.2,29.96,SSW,208,4.0,4.0,60,0.00,,,0.00,Wunderground v.1.15,2013-01-08 19:40:00,
2013-01-08 11:45:00,63.5,49.8,29.95,South,171,4.0,4.0,61,0.00,,,0.00,Wunderground v.1.15,2013-01-08 19:45:00,
2013-01-08 12:11:00,64.0,49.8,29.95,South,185,4.0,10.0,60,0.00,,,0.00,Wunderground v.1.15,2013-01-08 20:11:00,
2013-01-08 12:15:00,64.1,49.9,29.94,South,171,5.0,10.0,60,0.00,,,0.00,Wunderground v.1.15,2013-01-08 20:15:00,
2013-01-08 12:25:00,64.0,50.3,29.94,South,186,4.0,6.0,61,0.00,,,0.00,Wunderground v.1.15,2013-01-08 20:25:00,
2013-01-08 12:30:00,64.0,50.3,29.95,South,179,5.0,6.0,61,0.00,,,0.00,Wunderground v.1.15,2013-01-08 20:30:00,
2013-01-08 12:35:00,63.8,50.1,29.95,SSE,158,4.0,4.0,61,0.00,,,0.00,Wunderground v.1.15,2013-01-08 20:35:00,
2013-01-08 12:40:00,63.0,50.2,29.95,South,189,3.0,4.0,63,0.00,,,0.00,Wunderground v.1.15,2013-01-08 20:40:00,
2013-01-08 12:45:00,63.5,50.7,29.94,SW,224,2.0,2.0,63,0.00,,,0.00,Wunderground v.1.15,2013-01-08 20:45:00,
2013-01-08 12:50:00,63.2,50.4,29.94,SW,216,3.0,5.0,63,0.00,,,0.00,Wunderground v.1.15,2013-01-08 20:50:00,
2013-01-08 12:55:00,63.0,50.2,29.94,SSW,209,3.0,3.0,63,0.00,,,0.00,Wunderground v.1.15,2013-01-08 20:55:00,
2013-01-08 13:00:00,63.7,50.4,29.94,SSE,160,3.0,5.0,62,0.00,,,0.00,Wunderground v.1.15,2013-01-08 21:00:00,
2013-01-08 13:05:00,63.8,50.1,29.94,SSW,210,3.0,6.0,61,0.00,,,0.00,Wunderground v.1.15,2013-01-08 21:05:00,
2013-01-08 13:10:00,64.3,50.6,29.94,SSW,196,4.0,4.0,61,0.00,,,0.00,Wunderground v.1.15,2013-01-08 21:10:00,
2013-01-08 13:15:00,64.5,50.7,29.94,SSE,162,4.0,5.0,61,0.00,,,0.00,Wunderground v.1.15,2013-01-08 21:15:00,
2013-01-08 13:20:00,64.3,51.0,29.94,SSE,154,5.0,7.0,62,0.00,,,0.00,Wunderground v.1.15,2013-01-08 21:20:00,
2013-01-08 13:36:00,64.6,51.7,29.94,SSE,165,4.0,8.0,63,0.00,,,0.00,Wunderground v.1.15,2013-01-08 21:36:00,
2013-01-08 13:45:00,64.9,51.6,29.94,SSE,161,5.0,8.0,62,0.00,,,0.00,Wunderground v.1.15,2013-01-08 21:45:00,
2013-01-08 13:50:00,64.6,51.7,29.94,SSE,151,5.0,5.0,63,0.00,,,0.00,Wunderground v.1.15,2013-01-08 21:50:00,
2013-01-08 13:55:00,64.6,51.3,29.94,South,182,4.0,5.0,62,0.00,,,0.00,Wunderground v.1.15,2013-01-08 21:55:00,
2013-01-08 14:00:00,64.3,51.9,29.93,SSE,148,4.0,4.0,64,0.00,,,0.00,Wunderground v.1.15,2013-01-08 22:00:00,
2013-01-08 14:05:00,63.8,51.8,29.93,SSE,150,4.0,6.0,65,0.00,,,0.00,Wunderground v.1.15,2013-01-08 22:05:00,
2013-01-08 14:10:00,63.2,51.2,29.93,South,171,5.0,5.0,65,0.00,,,0.00,Wunderground v.1.15,2013-01-08 22:10:00,
2013-01-08 14:26:00,63.3,51.3,29.94,South,185,3.0,3.0,65,0.00,,,0.00,Wunderground v.1.15,2013-01-08 22:26:00,
2013-01-08 14:30:00,63.3,52.2,29.94,South,171,3.0,3.0,67,0.00,,,0.00,Wunderground v.1.15,2013-01-08 22:30:00,
2013-01-08 14:40:00,62.8,51.7,29.94,South,189,3.0,6.0,67,0.00,,,0.00,Wunderground v.1.15,2013-01-08 22:40:00,
2013-01-08 14:45:00,63.0,51.9,29.94,SW,226,3.0,6.0,67,0.00,,,0.00,Wunderground v.1.15,2013-01-08 22:45:00,
2013-01-08 14:50:00,63.0,52.3,29.94,South,191,3.0,3.0,68,0.00,,,0.00,Wunderground v.1.15,2013-01-08 22:50:00,
2013-01-08 14:55:00,63.2,52.1,29.94,SSW,198,3.0,5.0,67,0.00,,,0.00,Wunderground v.1.15,2013-01-08 22:55:00,
2013-01-08 15:10:00,63.0,51.9,29.95,SSW,213,3.0,3.0,67,0.00,,,0.00,Wunderground v.1.15,2013-01-08 23:10:00,
2013-01-08 15:15:00,63.0,52.3,29.95,South,178,2.0,3.0,68,0.00,,,0.00,Wunderground v.1.15,2013-01-08 23:15:00,
2013-01-08 15:25:00,63.2,50.8,29.95,South,184,2.0,4.0,64,0.00,,,0.00,Wunderground v.1.15,2013-01-08 23:25:00,
2013-01-08 15:30:00,63.0,49.8,29.95,South,181,3.0,3.0,62,0.00,,,0.00,Wunderground v.1.15,2013-01-08 23:30:00,
2013-01-08 15:40:00,63.2,49.5,29.95,SW,223,2.0,4.0,61,0.00,,,0.00,Wunderground v.1.15,2013-01-08 23:40:00,
2013-01-08 15:56:00,63.2,51.2,29.95,SSW,203,2.0,2.0,65,0.00,,,0.00,Wunderground v.1.15,2013-01-08 23:56:00,
2013-01-08 16:00:00,62.7,52.0,29.96,South,189,2.0,5.0,68,0.00,,,0.00,Wunderground v.1.15,2013-01-09 00:00:00,
2013-01-08 16:05:00,62.2,52.3,29.96,SSW,196,3.0,5.0,70,0.00,,,0.00,Wunderground v.1.15,2013-01-09 00:05:00,
2013-01-08 16:10:00,61.9,52.4,29.96,SSW,193,3.0,3.0,71,0.00,,,0.00,Wunderground v.1.15,2013-01-09 00:10:00,
2013-01-08 16:15:00,61.4,51.9,29.96,SSW,196,2.0,6.0,71,0.00,,,0.00,Wunderground v.1.15,2013-01-09 00:15:00,
2013-01-08 16:20:00,61.1,51.6,29.96,SW,227,2.0,2.0,71,0.00,,,0.00,Wunderground v.1.15,2013-01-09 00:20:00,
2013-01-08 16:25:00,60.8,51.7,29.96,SW,223,3.0,3.0,72,0.00,,,0.00,Wunderground v.1.15,2013-01-09 00:25:00,
2013-01-08 16:45:00,59.0,51.4,29.96,South,181,1.0,1.0,76,0.00,,,0.00,Wunderground v.1.15,2013-01-09 00:45:00,
2013-01-08 16:50:00,58.4,51.2,29.96,SW,223,2.0,2.0,77,0.00,,,0.00,Wunderground v.1.15,2013-01-09 00:50:00,
2013-01-08 16:55:00,58.3,51.5,29.96,WSW,247,2.0,4.0,78,0.00,,,0.00,Wunderground v.1.15,2013-01-09 00:55:00,
2013-01-08 17:00:00,57.8,51.0,29.97,SW,219,2.0,2.0,78,0.00,,,0.00,Wunderground v.1.15,2013-01-09 01:00:00,
2013-01-08 17:10:00,57.4,51.3,29.97,SW,217,2.0,2.0,80,0.00,,,0.00,Wunderground v.1.15,2013-01-09 01:10:00,
2013-01-08 17:35:00,56.3,51.2,29.97,SW,216,1.0,1.0,83,0.00,,,0.00,Wunderground v.1.15,2013-01-09 01:35:00,
2013-01-08 17:40:00,56.0,50.9,29.97,SW,216,1.0,1.0,83,0.00,,,0.00,Wunderground v.1.15,2013-01-09 01:40:00,
2013-01-08 17:55:00,55.4,50.6,29.97,SW,216,1.0,1.0,84,0.00,,,0.00,Wunderground v.1.15,2013-01-09 01:55:00,
2013-01-08 18:00:00,55.0,50.3,29.97,SW,216,1.0,2.0,84,0.00,,,0.00,Wunderground v.1.15,2013-01-09 02:00:00,
2013-01-08 18:05:00,54.7,50.3,29.97,SW,216,1.0,2.0,85,0.00,,,0.00,Wunderground v.1.15,2013-01-09 02:05:00,
2013-01-08 18:35:00,53.9,50.1,29.98,SE,134,1.0,2.0,87,0.00,,,0.00,Wunderground v.1.15,2013-01-09 02:35:00,
2013-01-08 18:40:00,53.9,50.1,29.98,ESE,117,1.0,3.0,87,0.00,,,0.00,Wunderground v.1.15,2013-01-09 02:40:00,
2013-01-08 19:05:00,53.3,49.8,29.98,ESE,117,0.0,1.0,88,0.00,,,0.00,Wunderground v.1.15,2013-01-09 03:05:00,
2013-01-08 19:10:00,53.0,49.5,29.98,ESE,117,0.0,1.0,88,0.00,,,0.00,Wunderground v.1.15,2013-01-09 03:10:00,
2013-01-08 19:15:00,52.7,49.2,29.98,ESE,117,0.0,0.0,88,0.00,,,0.00,Wunderground v.1.15,2013-01-09 03:15:00,
2013-01-08 19:20:00,52.6,49.1,29.98,ESE,117,0.0,0.0,88,0.00,,,0.00,Wunderground v.1.15,2013-01-09 03:20:00,
2013-01-08 19:26:00,52.3,49.2,29.98,ESE,117,0.0,0.0,89,0.00,,,0.00,Wunderground v.1.15,2013-01-09 03:26:00,
2013-01-08 20:00:00,51.3,48.5,29.98,ESE,117,0.0,0.0,90,0.00,,,0.00,Wunderground v.1.15,2013-01-09 04:00:00,
2013-01-08 20:05:00,51.0,48.2,29.98,ESE,117,0.0,0.0,90,0.00,,,0.00,Wunderground v.1.15,2013-01-09 04:05:00,
2013-01-08 20:10:00,50.7,47.9,29.98,ESE,117,0.0,0.0,90,0.00,,,0.00,Wunderground v.1.15,2013-01-09 04:10:00,
2013-01-08 20:15:00,50.5,47.7,29.98,ESE,117,0.0,0.0,90,0.00,,,0.00,Wunderground v.1.15,2013-01-09 04:15:00,
2013-01-08 20:20:00,50.4,47.6,29.98,ESE,117,0.0,0.0,90,0.00,,,0.00,Wunderground v.1.15,2013-01-09 04:20:00,
2013-01-08 20:25:00,50.4,47.6,29.98,ESE,117,0.0,0.0,90,0.00,,,0.00,Wunderground v.1.15,2013-01-09 04:25:00,
2013-01-08 20:30:00,50.2,47.4,29.98,ESE,117,0.0,0.0,90,0.00,,,0.00,Wunderground v.1.15,2013-01-09 04:30:00,
2013-01-08 20:35:00,49.9,47.1,29.98,ESE,117,0.0,0.0,90,0.00,,,0.00,Wunderground v.1.15,2013-01-09 04:35:00,
2013-01-08 20:40:00,49.8,47.0,29.98,ESE,117,0.0,0.0,90,0.00,,,0.00,Wunderground v.1.15,2013-01-09 04:40:00,
2013-01-08 20:50:00,49.5,46.7,29.98,ESE,117,0.0,0.0,90,0.00,,,0.00,Wunderground v.1.15,2013-01-09 04:50:00,
2013-01-08 20:55:00,49.3,46.5,29.98,ESE,117,0.0,0.0,90,0.00,,,0.00,Wunderground v.1.15,2013-01-09 04:55:00,
2013-01-08 21:11:00,49.0,46.5,29.98,ESE,117,0.0,0.0,91,0.00,,,0.00,Wunderground v.1.15,2013-01-09 05:11:00,
2013-01-08 21:20:00,48.9,46.4,29.98,ESE,117,0.0,0.0,91,0.00,,,0.00,Wunderground v.1.15,2013-01-09 05:20:00,
2013-01-08 21:25:00,48.7,46.2,29.98,ESE,117,0.0,0.0,91,0.00,,,0.00,Wunderground v.1.15,2013-01-09 05:25:00,
2013-01-08 21:30:00,48.6,46.1,29.99,ESE,117,0.0,0.0,91,0.00,,,0.00,Wunderground v.1.15,2013-01-09 05:30:00,
2013-01-08 21:35:00,48.4,45.9,29.99,ESE,117,0.0,0.0,91,0.00,,,0.00,Wunderground v.1.15,2013-01-09 05:35:00,
2013-01-08 21:40:00,48.3,45.8,29.99,ESE,117,0.0,0.0,91,0.00,,,0.00,Wunderground v.1.15,2013-01-09 05:40:00,
2013-01-08 21:45:00,48.1,45.6,29.98,ESE,117,0.0,0.0,91,0.00,,,0.00,Wunderground v.1.15,2013-01-09 05:45:00,
2013-01-08 21:50:00,48.0,45.5,29.98,ESE,117,0.0,0.0,91,0.00,,,0.00,Wunderground v.1.15,2013-01-09 05:50:00,
2013-01-08 22:06:00,47.6,45.1,29.99,ESE,117,0.0,0.0,91,0.00,,,0.00,Wunderground v.1.15,2013-01-09 06:06:00,
2013-01-08 22:10:00,47.4,44.9,29.99,ESE,117,0.0,0.0,91,0.00,,,0.00,Wunderground v.1.15,2013-01-09 06:10:00,
2013-01-08 22:15:00,47.3,44.8,30.00,ESE,117,0.0,0.0,91,0.00,,,0.00,Wunderground v.1.15,2013-01-09 06:15:00,
2013-01-08 22:20:00,47.1,44.6,30.00,ESE,117,0.0,0.0,91,0.00,,,0.00,Wunderground v.1.15,2013-01-09 06:20:00,
2013-01-08 22:25:00,47.1,44.6,30.00,ESE,117,0.0,0.0,91,0.00,,,0.00,Wunderground v.1.15,2013-01-09 06:25:00,
2013-01-08 22:30:00,47.1,44.6,30.00,ESE,117,0.0,0.0,91,0.00,,,0.00,Wunderground v.1.15,2013-01-09 06:30:00,
2013-01-08 22:35:00,47.1,44.6,30.00,ESE,117,0.0,0.0,91,0.00,,,0.00,Wunderground v.1.15,2013-01-09 06:35:00,
2013-01-08 22:40:00,47.1,44.6,30.00,ESE,117,0.0,0.0,91,0.00,,,0.00,Wunderground v.1.15,2013-01-09 06:40:00,
2013-01-08 23:00:00,46.5,44.0,30.00,ESE,117,0.0,0.0,91,0.00,,,0.00,Wunderground v.1.15,2013-01-09 07:00:00,
2013-01-08 23:05:00,46.4,43.9,30.00,ESE,117,0.0,0.0,91,0.00,,,0.00,Wunderground v.1.15,2013-01-09 07:05:00,
2013-01-08 23:10:00,46.2,43.7,30.00,ESE,117,0.0,0.0,91,0.00,,,0.00,Wunderground v.1.15,2013-01-09 07:10:00,
2013-01-08 23:15:00,46.1,43.6,30.00,ESE,117,0.0,0.0,91,0.00,,,0.00,Wunderground v.1.15,2013-01-09 07:15:00,
2013-01-08 23:20:00,46.1,43.6,30.00,ESE,117,0.0,0.0,91,0.00,,,0.00,Wunderground v.1.15,2013-01-09 07:20:00,
2013-01-08 23:30:00,46.1,43.9,30.00,ESE,117,0.0,0.0,92,0.00,,,0.00,Wunderground v.1.15,2013-01-09 07:30:00,
2013-01-08 23:35:00,46.1,43.9,30.00,ESE,117,0.0,0.0,92,0.00,,,0.00,Wunderground v.1.15,2013-01-09 07:35:00,
2013-01-08 23:40:00,45.9,43.4,30.00,ESE,117,0.0,0.0,91,0.00,,,0.00,Wunderground v.1.15,2013-01-09 07:40:00,